| time (UTC) | temp C | wind direction | speed KPH | gust KPH | rain 1hr cm | rain 24hr cm | rain mn cm | humidity % | barometer mb |
| 20260505212515 | 28 | 228 | 3.2 | 11.3 | 0.00 | 0.00 | 0.00 | 75 | 1007.6 |
| 20260505212009 | 28 | 82 | 1.6 | 8.0 | 0.00 | 0.00 | 0.00 | 77 | 1007.7 |
| 20260505211526 | 28 | 285 | 1.6 | 9.7 | 0.00 | 0.00 | 0.00 | 76 | 1007.8 |
| 20260505211006 | 28 | 276 | 1.6 | 9.7 | 0.00 | 0.00 | 0.00 | 75 | 1007.8 |
| 20260505210503 | 28 | 206 | 0.0 | 8.0 | 0.00 | 0.00 | 0.00 | 76 | 1007.8 |
| 20260505210024 | 28 | 250 | 0.0 | 11.3 | 0.00 | 0.00 | 0.00 | 75 | 1007.9 |
| 20260505205504 | 29 | 39 | 1.6 | 14.5 | 0.00 | 0.00 | 0.00 | 73 | 1008.0 |
| 20260505205012 | 29 | 196 | 3.2 | 14.5 | 0.00 | 0.00 | 0.00 | 73 | 1008.0 |
| 20260505204523 | 29 | 219 | 3.2 | 11.3 | 0.00 | 0.00 | 0.00 | 73 | 1008.0 |
| 20260505204010 | 29 | 209 | 3.2 | 11.3 | 0.00 | 0.00 | 0.00 | 73 | 1008.0 |
| 20260505203512 | 29 | 126 | 1.6 | 8.0 | 0.00 | 0.00 | 0.00 | 73 | 1008.1 |
| 20260505203033 | 29 | 259 | 1.6 | 9.7 | 0.00 | 0.00 | 0.00 | 77 | 1008.2 |
| 20260505202508 | 28 | 209 | 1.6 | 9.7 | 0.00 | 0.00 | 0.00 | 75 | 1008.2 |
| 20260505202009 | 28 | 115 | 3.2 | 12.9 | 0.00 | 0.00 | 0.00 | 77 | 1008.3 |
| 20260505201525 | 28 | 255 | 4.8 | 12.9 | 0.00 | 0.00 | 0.00 | 75 | 1008.4 |
| 20260505201010 | 28 | 237 | 3.2 | 14.5 | 0.00 | 0.00 | 0.00 | 76 | 1008.3 |
| 20260505200514 | 28 | 181 | 3.2 | 14.5 | 0.00 | 0.00 | 0.00 | 76 | 1008.4 |
| 20260505200015 | 28 | 94 | 0.0 | 14.5 | 0.00 | 0.00 | 0.00 | 77 | 1008.5 |
| 20260505195511 | 28 | 195 | 3.2 | 14.5 | 0.00 | 0.00 | 0.00 | 76 | 1008.7 |
| 20260505195007 | 28 | 122 | 1.6 | 12.9 | 0.00 | 0.00 | 0.00 | 76 | 1008.7 |
| 20260505194528 | 28 | 124 | 0.0 | 12.9 | 0.00 | 0.00 | 0.00 | 76 | 1008.8 |
| 20260505194009 | 28 | 275 | 1.6 | 8.0 | 0.00 | 0.00 | 0.00 | 76 | 1008.9 |
| 20260505193505 | 28 | 135 | 1.6 | 12.9 | 0.00 | 0.00 | 0.00 | 78 | 1008.9 |
| 20260505193025 | 28 | 257 | 0.0 | 14.5 | 0.00 | 0.00 | 0.00 | 79 | 1008.9 |
| 20260505192508 | 27 | 62 | 1.6 | 16.1 | 0.00 | 0.00 | 0.00 | 77 | 1009.0 |
| 20260505192004 | 27 | 245 | 3.2 | 16.1 | 0.00 | 0.00 | 0.00 | 77 | 1009.0 |
| 20260505191527 | 27 | 219 | 4.8 | 14.5 | 0.00 | 0.00 | 0.00 | 78 | 1008.9 |
| 20260505191011 | 27 | 75 | 1.6 | 12.9 | 0.00 | 0.00 | 0.00 | 78 | 1009.0 |
| 20260505190510 | 27 | 241 | 3.2 | 8.0 | 0.00 | 0.00 | 0.00 | 78 | 1009.1 |
| 20260505190024 | 27 | 223 | 0.0 | 11.3 | 0.00 | 0.00 | 0.00 | 79 | 1009.1 |
| 20260505185507 | 27 | 264 | 1.6 | 11.3 | 0.00 | 0.00 | 0.00 | 80 | 1009.0 |
| 20260505185012 | 27 | 98 | 1.6 | 12.9 | 0.00 | 0.00 | 0.00 | 79 | 1009.2 |
| 20260505184526 | 27 | 11 | 3.2 | 17.7 | 0.00 | 0.00 | 0.00 | 78 | 1009.1 |
| 20260505184006 | 27 | 216 | 3.2 | 17.7 | 0.00 | 0.00 | 0.00 | 79 | 1009.3 |
| 20260505183511 | 27 | 86 | 1.6 | 11.3 | 0.00 | 0.00 | 0.00 | 80 | 1009.2 |
| 20260505183021 | 27 | 309 | 0.0 | 9.7 | 0.00 | 0.00 | 0.00 | 81 | 1009.2 |
| 20260505182517 | 27 | 135 | 1.6 | 9.7 | 0.00 | 0.00 | 0.00 | 82 | 1009.3 |
| 20260505182012 | 26 | 217 | 0.0 | 11.3 | 0.00 | 0.00 | 0.00 | 82 | 1009.4 |
| 20260505181521 | 26 | 249 | 3.2 | 11.3 | 0.00 | 0.00 | 0.00 | 81 | 1009.5 |
| 20260505181006 | 26 | 146 | 4.8 | 11.3 | 0.00 | 0.00 | 0.00 | 81 | 1009.5 |
| 20260505180505 | 26 | 210 | 3.2 | 8.0 | 0.00 | 0.00 | 0.00 | 81 | 1009.6 |
| 20260505180037 | 26 | 91 | 1.6 | 6.4 | 0.00 | 0.00 | 0.00 | 81 | 1009.5 |
| 20260505175504 | 26 | 149 | 3.2 | 14.5 | 0.00 | 0.00 | 0.00 | 82 | 1009.6 |
| 20260505175010 | 26 | 214 | 1.6 | 14.5 | 0.00 | 0.00 | 0.00 | 83 | 1009.6 |
| 20260505174532 | 26 | 128 | 0.0 | 9.7 | 0.00 | 0.00 | 0.00 | 83 | 1009.6 |
| 20260505174004 | 26 | 233 | 3.2 | 11.3 | 0.00 | 0.00 | 0.00 | 82 | 1009.6 |
| 20260505173506 | 26 | 208 | 0.0 | 11.3 | 0.00 | 0.00 | 0.00 | 84 | 1009.6 |
| 20260505173020 | 25 | 100 | 1.6 | 9.7 | 0.00 | 0.00 | 0.00 | 85 | 1009.6 |
| 20260505172502 | 25 | 204 | 3.2 | 12.9 | 0.00 | 0.00 | 0.00 | 84 | 1009.7 |
| 20260505172006 | 25 | 82 | 0.0 | 12.9 | 0.00 | 0.00 | 0.00 | 84 | 1009.8 |
| 20260505171516 | 25 | 226 | 0.0 | 4.8 | 0.00 | 0.00 | 0.00 | 84 | 1009.8 |
| 20260505171007 | 26 | 165 | 1.6 | 6.4 | 0.00 | 0.00 | 0.00 | 83 | 1009.8 |
| 20260505170508 | 26 | 219 | 0.0 | 6.4 | 0.00 | 0.00 | 0.00 | 84 | 1009.8 |
| 20260505170006 | 26 | 264 | 0.0 | 6.4 | 0.00 | 0.00 | 0.00 | 84 | 1009.8 |
| 20260505165509 | 26 | 183 | 1.6 | 8.0 | 0.00 | 0.00 | 0.00 | 83 | 1009.9 |
| 20260505165008 | 26 | 193 | 1.6 | 9.7 | 0.00 | 0.00 | 0.00 | 84 | 1010.0 |
| 20260505164506 | 25 | 238 | 3.2 | 9.7 | 0.00 | 0.00 | 0.00 | 84 | 1010.0 |
| 20260505164007 | 25 | 120 | 0.0 | 12.9 | 0.00 | 0.00 | 0.00 | 85 | 1009.9 |
| 20260505163504 | 25 | 207 | 1.6 | 12.9 | 0.00 | 0.00 | 0.00 | 85 | 1009.9 |
| 20260505163024 | 25 | 97 | 1.6 | 8.0 | 0.00 | 0.00 | 0.00 | 86 | 1010.1 |
| 20260505162504 | 25 | 256 | 3.2 | 11.3 | 0.00 | 0.00 | 0.00 | 85 | 1010.1 |
| 20260505162003 | 25 | 209 | 3.2 | 11.3 | 0.00 | 0.00 | 0.00 | 86 | 1009.9 |
| 20260505161521 | 25 | 212 | 3.2 | 11.3 | 0.00 | 0.00 | 0.00 | 86 | 1010.0 |
| 20260505161003 | 25 | 223 | 3.2 | 11.3 | 0.00 | 0.00 | 0.00 | 86 | 1010.0 |
| 20260505160511 | 25 | 184 | 1.6 | 9.7 | 0.00 | 0.00 | 0.00 | 86 | 1009.9 |
| 20260505153012 | 24 | 96 | 0.0 | 8.0 | 0.00 | 0.00 | 0.00 | 86 | 1009.6 |
| 20260505152512 | 24 | 196 | 1.6 | 11.3 | 0.00 | 0.00 | 0.00 | 86 | 1009.5 |
| 20260505152010 | 24 | 209 | 0.0 | 11.3 | 0.00 | 0.00 | 0.00 | 86 | 1009.6 |
| 20260505151513 | 24 | 8 | 1.6 | 9.7 | 0.00 | 0.00 | 0.00 | 86 | 1009.7 |
| 20260505151010 | 24 | 248 | 0.0 | 4.8 | 0.00 | 0.00 | 0.00 | 87 | 1009.7 |
| 20260505150510 | 24 | 263 | 0.0 | 11.3 | 0.00 | 0.00 | 0.00 | 87 | 1009.5 |
| 20260505140507 | 23 | 198 | 0.0 | 4.8 | 0.00 | 0.00 | 0.00 | 89 | 1009.4 |
| 20260505125004 | 21 | 212 | 0.0 | 6.4 | 0.00 | 0.00 | 0.00 | 92 | 1009.3 |
| 20260505124531 | 21 | 238 | 0.0 | 6.4 | 0.00 | 0.00 | 0.00 | 92 | 1009.2 |
| 20260505124007 | 21 | 299 | 0.0 | 1.6 | 0.00 | 0.00 | 0.00 | 93 | 1008.9 |
| 20260505123504 | 21 | 266 | 0.0 | 1.6 | 0.00 | 0.00 | 0.00 | 93 | 1008.7 |
| 20260505123023 | 21 | 188 | 0.0 | 4.8 | 0.00 | 0.00 | 0.00 | 93 | 1008.8 |
| 20260505122505 | 21 | 221 | 0.0 | 8.0 | 0.00 | 0.00 | 0.00 | 93 | 1008.9 |
| 20260505122007 | 21 | 229 | 0.0 | 8.0 | 0.00 | 0.00 | 0.00 | 93 | 1008.9 |
| 20260505121523 | 21 | 101 | 1.6 | 4.8 | 0.00 | 0.00 | 0.00 | 93 | 1009.0 |
| 20260505121003 | 21 | 273 | 0.0 | 6.4 | 0.00 | 0.00 | 0.00 | 93 | 1009.1 |
| 20260505120513 | 21 | 272 | 0.0 | 6.4 | 0.00 | 0.00 | 0.00 | 93 | 1009.0 |
| 20260505120020 | 21 | 260 | 0.0 | 1.6 | 0.00 | 0.00 | 0.00 | 92 | 1009.0 |
| 20260505115504 | 21 | 217 | 0.0 | 1.6 | 0.00 | 0.00 | 0.00 | 92 | 1008.8 |
| 20260505115013 | 21 | 208 | 0.0 | 1.6 | 0.00 | 0.00 | 0.00 | 92 | 1008.7 |
| 20260505114517 | 21 | 198 | 0.0 | 1.6 | 0.00 | 0.00 | 0.00 | 92 | 1008.6 |
| 20260505114012 | 21 | 244 | 0.0 | 3.2 | 0.00 | 0.00 | 0.00 | 92 | 1008.5 |
| 20260505113507 | 21 | 233 | 0.0 | 3.2 | 0.00 | 0.00 | 0.00 | 92 | 1008.5 |
| 20260505113019 | 21 | 244 | 0.0 | 3.2 | 0.00 | 0.00 | 0.00 | 92 | 1008.6 |
| 20260505112509 | 21 | 254 | 0.0 | 3.2 | 0.00 | 0.00 | 0.00 | 92 | 1009.0 |
| 20260505112004 | 21 | 217 | 0.0 | 1.6 | 0.00 | 0.00 | 0.00 | 92 | 1008.9 |
| 20260505111528 | 21 | 221 | 0.0 | 1.6 | 0.00 | 0.00 | 0.00 | 92 | 1008.8 |
| 20260505111010 | 21 | 221 | 0.0 | 4.8 | 0.00 | 0.00 | 0.00 | 92 | 1008.8 |
| 20260505110504 | 21 | 220 | 0.0 | 4.8 | 0.00 | 0.00 | 0.00 | 92 | 1008.8 |
| 20260505102010 | 20 | 221 | 0.0 | 1.6 | 0.00 | 0.00 | 0.00 | 92 | 1008.9 |
| 20260505101532 | 20 | 221 | 0.0 | 1.6 | 0.00 | 0.00 | 0.00 | 92 | 1009.0 |
| 20260505101007 | 20 | 121 | 0.0 | 0.0 | 0.00 | 0.00 | 0.00 | 92 | 1008.8 |
| 20260505100506 | 20 | 226 | 0.0 | 1.6 | 0.00 | 0.00 | 0.00 | 92 | 1008.7 |
| 20260505100023 | 20 | 226 | 0.0 | 1.6 | 0.00 | 0.00 | 0.00 | 92 | 1008.8 |
| 20260505095510 | 20 | 190 | 0.0 | 1.6 | 0.00 | 0.00 | 0.00 | 92 | 1008.8 |
| 20260505095008 | 20 | 194 | 0.0 | 1.6 | 0.00 | 0.00 | 0.00 | 92 | 1009.0 |
| 20260505094520 | 20 | 321 | 0.0 | 1.6 | 0.00 | 0.00 | 0.00 | 92 | 1008.9 |
| 20260505094011 | 20 | 257 | 0.0 | 1.6 | 0.00 | 0.00 | 0.00 | 92 | 1008.9 |
| 20260505093509 | 20 | 259 | 0.0 | 1.6 | 0.00 | 0.00 | 0.00 | 92 | 1008.9 |
| 20260505093035 | 20 | 259 | 0.0 | 0.0 | 0.00 | 0.00 | 0.00 | 91 | 1008.9 |
| 20260505092510 | 20 | 259 | 0.0 | 1.6 | 0.00 | 0.00 | 0.00 | 91 | 1008.9 |
| 20260505092008 | 20 | 259 | 0.0 | 1.6 | 0.00 | 0.00 | 0.00 | 91 | 1009.0 |
| 20260505091527 | 20 | 226 | 0.0 | 1.6 | 0.00 | 0.00 | 0.00 | 91 | 1009.1 |
| 20260505091003 | 20 | 271 | 0.0 | 1.6 | 0.00 | 0.00 | 0.00 | 91 | 1009.2 |
| 20260505090504 | 20 | 271 | 0.0 | 1.6 | 0.00 | 0.00 | 0.00 | 91 | 1009.2 |
| 20260505090014 | 20 | 283 | 0.0 | 1.6 | 0.00 | 0.00 | 0.00 | 91 | 1009.2 |
| 20260505085503 | 20 | 229 | 0.0 | 1.6 | 0.00 | 0.00 | 0.00 | 91 | 1009.2 |
| 20260505085009 | 20 | 218 | 0.0 | 4.8 | 0.00 | 0.00 | 0.00 | 91 | 1009.2 |
| 20260505084508 | 20 | 217 | 0.0 | 4.8 | 0.00 | 0.00 | 0.00 | 90 | 1009.2 |
| 20260505084008 | 20 | 204 | 0.0 | 4.8 | 0.00 | 0.00 | 0.00 | 90 | 1009.2 |
| 20260505083513 | 20 | 203 | 0.0 | 4.8 | 0.00 | 0.00 | 0.00 | 90 | 1009.2 |
| 20260505083011 | 20 | 212 | 0.0 | 3.2 | 0.00 | 0.00 | 0.00 | 90 | 1009.2 |
| 20260505082503 | 20 | 195 | 0.0 | 1.6 | 0.00 | 0.00 | 0.00 | 90 | 1009.4 |
| 20260505082003 | 20 | 224 | 0.0 | 1.6 | 0.00 | 0.00 | 0.00 | 89 | 1009.6 |
| 20260505081507 | 20 | 174 | 0.0 | 1.6 | 0.00 | 0.00 | 0.00 | 89 | 1009.6 |
| 20260505081008 | 20 | 238 | 0.0 | 3.2 | 0.00 | 0.00 | 0.00 | 89 | 1009.5 |
| 20260505080504 | 20 | 236 | 0.0 | 3.2 | 0.00 | 0.00 | 0.00 | 89 | 1009.5 |
| 20260505080018 | 21 | 205 | 0.0 | 3.2 | 0.00 | 0.00 | 0.00 | 89 | 1009.6 |
| 20260505075507 | 21 | 225 | 0.0 | 3.2 | 0.00 | 0.00 | 0.00 | 89 | 1009.8 |
| 20260505075003 | 20 | 233 | 0.0 | 3.2 | 0.00 | 0.00 | 0.00 | 89 | 1009.9 |
| 20260505074517 | 20 | 214 | 0.0 | 3.2 | 0.00 | 0.00 | 0.00 | 89 | 1009.7 |
| 20260505074006 | 20 | 231 | 0.0 | 1.6 | 0.00 | 0.00 | 0.00 | 89 | 1009.7 |
| 20260505073508 | 20 | 257 | 0.0 | 1.6 | 0.00 | 0.00 | 0.00 | 89 | 1009.8 |
| 20260505073018 | 20 | 274 | 0.0 | 1.6 | 0.00 | 0.00 | 0.00 | 89 | 1009.9 |
| 20260505072507 | 20 | 145 | 0.0 | 1.6 | 0.00 | 0.00 | 0.00 | 89 | 1009.8 |
| 20260505072007 | 20 | 215 | 0.0 | 1.6 | 0.00 | 0.00 | 0.00 | 88 | 1010.0 |
| 20260505071514 | 20 | 207 | 0.0 | 1.6 | 0.00 | 0.00 | 0.00 | 88 | 1010.0 |
| 20260505071003 | 20 | 130 | 0.0 | 3.2 | 0.00 | 0.00 | 0.00 | 88 | 1010.1 |
| 20260505070506 | 20 | 235 | 0.0 | 3.2 | 0.00 | 0.00 | 0.00 | 88 | 1010.1 |
| 20260505070012 | 20 | 203 | 0.0 | 3.2 | 0.00 | 0.00 | 0.00 | 88 | 1010.1 |
| 20260505065511 | 20 | 243 | 0.0 | 1.6 | 0.00 | 0.00 | 0.00 | 88 | 1010.2 |
| 20260505065005 | 20 | 232 | 0.0 | 1.6 | 0.00 | 0.00 | 0.00 | 88 | 1010.2 |
| 20260505064511 | 20 | 236 | 0.0 | 1.6 | 0.00 | 0.00 | 0.00 | 88 | 1010.3 |
| 20260505064007 | 20 | 241 | 0.0 | 1.6 | 0.00 | 0.00 | 0.00 | 88 | 1010.3 |
| 20260505063506 | 20 | 110 | 0.0 | 1.6 | 0.00 | 0.00 | 0.00 | 88 | 1010.3 |
| 20260505063013 | 20 | 155 | 0.0 | 1.6 | 0.00 | 0.00 | 0.00 | 88 | 1010.3 |
| 20260505062512 | 20 | 113 | 0.0 | 3.2 | 0.00 | 0.00 | 0.00 | 88 | 1010.5 |
| 20260505062004 | 20 | 205 | 0.0 | 3.2 | 0.00 | 0.00 | 0.00 | 88 | 1010.4 |
| 20260505061521 | 20 | 246 | 0.0 | 1.6 | 0.00 | 0.00 | 0.00 | 87 | 1010.4 |
| 20260505061008 | 20 | 117 | 0.0 | 6.4 | 0.00 | 0.00 | 0.00 | 87 | 1010.4 |
| 20260505060503 | 20 | 222 | 0.0 | 6.4 | 0.00 | 0.00 | 0.00 | 87 | 1010.5 |
| 20260505060023 | 20 | 124 | 0.0 | 6.4 | 0.00 | 0.00 | 0.00 | 87 | 1010.7 |
| 20260505055506 | 20 | 194 | 0.0 | 1.6 | 0.00 | 0.00 | 0.00 | 87 | 1010.7 |
| 20260505055003 | 20 | 276 | 0.0 | 3.2 | 0.00 | 0.00 | 0.00 | 87 | 1010.6 |
| 20260505054522 | 20 | 306 | 0.0 | 3.2 | 0.00 | 0.00 | 0.00 | 87 | 1010.7 |
| 20260505054006 | 20 | 126 | 0.0 | 3.2 | 0.00 | 0.00 | 0.00 | 86 | 1010.7 |
| 20260505053510 | 20 | 98 | 0.0 | 6.4 | 0.00 | 0.00 | 0.00 | 86 | 1010.7 |
| 20260505053020 | 20 | 97 | 0.0 | 6.4 | 0.00 | 0.00 | 0.00 | 86 | 1010.9 |
| 20260505052504 | 20 | 284 | 0.0 | 4.8 | 0.00 | 0.00 | 0.00 | 86 | 1010.9 |
| 20260505052009 | 20 | 284 | 0.0 | 4.8 | 0.00 | 0.00 | 0.00 | 86 | 1010.9 |
| 20260505051533 | 21 | 108 | 0.0 | 8.0 | 0.00 | 0.00 | 0.00 | 86 | 1011.0 |
| 20260505051009 | 21 | 148 | 0.0 | 8.0 | 0.00 | 0.00 | 0.00 | 85 | 1011.0 |
| 20260505050511 | 21 | 261 | 0.0 | 8.0 | 0.00 | 0.00 | 0.00 | 85 | 1011.1 |
| 20260505041527 | 21 | 195 | 0.0 | 12.9 | 0.00 | 0.00 | 0.00 | 83 | 1011.1 |
| 20260505041007 | 21 | 257 | 0.0 | 12.9 | 0.00 | 0.00 | 0.00 | 83 | 1011.1 |
| 20260505040504 | 21 | 131 | 0.0 | 4.8 | 0.00 | 0.00 | 0.00 | 83 | 1011.0 |
| 20260505040026 | 21 | 128 | 0.0 | 8.0 | 0.00 | 0.00 | 0.00 | 82 | 1010.9 |
| 20260505035503 | 21 | 97 | 0.0 | 8.0 | 0.00 | 0.00 | 0.00 | 82 | 1011.1 |
| 20260505035008 | 21 | 121 | 1.6 | 8.0 | 0.00 | 0.00 | 0.00 | 82 | 1011.3 |
| 20260505034524 | 21 | 214 | 0.0 | 8.0 | 0.00 | 0.00 | 0.00 | 81 | 1011.2 |
| 20260505034004 | 22 | 194 | 0.0 | 4.8 | 0.00 | 0.00 | 0.00 | 81 | 1011.1 |
| 20260505033511 | 22 | 111 | 0.0 | 9.7 | 0.00 | 0.00 | 0.00 | 81 | 1011.0 |
| 20260505033024 | 21 | 117 | 0.0 | 9.7 | 0.00 | 0.00 | 0.00 | 81 | 1011.2 |
| 20260505032505 | 21 | 222 | 3.2 | 9.7 | 0.00 | 0.00 | 0.00 | 81 | 1011.4 |
| 20260505032008 | 22 | 98 | 0.0 | 4.8 | 0.00 | 0.00 | 0.00 | 81 | 1011.4 |
| 20260505031520 | 22 | 117 | 0.0 | 4.8 | 0.00 | 0.00 | 0.00 | 81 | 1011.3 |
| 20260505031007 | 22 | 123 | 0.0 | 4.8 | 0.00 | 0.00 | 0.00 | 80 | 1011.3 |
| 20260505030508 | 22 | 251 | 0.0 | 9.7 | 0.00 | 0.00 | 0.00 | 80 | 1011.3 |
| 20260505030017 | 22 | 116 | 0.0 | 9.7 | 0.00 | 0.00 | 0.00 | 79 | 1011.1 |
| 20260505025513 | 22 | 155 | 0.0 | 4.8 | 0.00 | 0.00 | 0.00 | 79 | 1011.2 |
| 20260505025008 | 22 | 134 | 1.6 | 8.0 | 0.00 | 0.00 | 0.00 | 79 | 1011.1 |
| 20260505024526 | 22 | 238 | 1.6 | 8.0 | 0.00 | 0.00 | 0.00 | 79 | 1011.0 |
| 20260505024008 | 22 | 141 | 0.0 | 9.7 | 0.00 | 0.00 | 0.00 | 79 | 1010.9 |
| 20260505023505 | 22 | 124 | 1.6 | 9.7 | 0.00 | 0.00 | 0.00 | 79 | 1011.0 |
| 20260505023026 | 22 | 84 | 0.0 | 8.0 | 0.00 | 0.00 | 0.00 | 78 | 1011.0 |
| 20260505022506 | 22 | 101 | 0.0 | 8.0 | 0.00 | 0.00 | 0.00 | 78 | 1011.0 |
| 20260505022006 | 22 | 122 | 1.6 | 4.8 | 0.00 | 0.00 | 0.00 | 78 | 1011.0 |
| 20260505021526 | 22 | 129 | 1.6 | 9.7 | 0.00 | 0.00 | 0.00 | 78 | 1010.9 |
| 20260505021004 | 22 | 191 | 0.0 | 9.7 | 0.00 | 0.00 | 0.00 | 78 | 1010.9 |
| 20260505020509 | 22 | 200 | 1.6 | 8.0 | 0.00 | 0.00 | 0.00 | 78 | 1010.9 |
| 20260505020026 | 22 | 119 | 0.0 | 4.8 | 0.00 | 0.00 | 0.00 | 79 | 1010.8 |
| 20260505015512 | 22 | 254 | 1.6 | 4.8 | 0.00 | 0.00 | 0.00 | 79 | 1010.9 |
| 20260505015008 | 22 | 164 | 0.0 | 4.8 | 0.00 | 0.00 | 0.00 | 79 | 1010.9 |
| 20260505014525 | 22 | 235 | 0.0 | 3.2 | 0.00 | 0.00 | 0.00 | 79 | 1010.8 |
| 20260505014007 | 22 | 91 | 0.0 | 0.0 | 0.00 | 0.00 | 0.00 | 80 | 1010.8 |
| 20260505013509 | 22 | 158 | 0.0 | 0.0 | 0.00 | 0.00 | 0.00 | 80 | 1010.6 |
| 20260505013024 | 22 | 155 | 0.0 | 1.6 | 0.00 | 0.00 | 0.00 | 79 | 1010.6 |
| 20260505012506 | 22 | 245 | 0.0 | 1.6 | 0.00 | 0.00 | 0.00 | 79 | 1010.6 |
| 20260505012011 | 22 | 269 | 0.0 | 3.2 | 0.00 | 0.00 | 0.00 | 79 | 1010.6 |
| 20260505011522 | 22 | 269 | 0.0 | 3.2 | 0.00 | 0.00 | 0.00 | 78 | 1010.4 |
| 20260505011011 | 22 | 221 | 0.0 | 1.6 | 0.00 | 0.00 | 0.00 | 77 | 1010.3 |
| 20260505010508 | 23 | 176 | 0.0 | 1.6 | 0.00 | 0.00 | 0.00 | 77 | 1010.4 |
| 20260505010028 | 23 | 149 | 0.0 | 3.2 | 0.00 | 0.00 | 0.00 | 76 | 1010.6 |
| 20260505005513 | 23 | 229 | 0.0 | 4.8 | 0.00 | 0.00 | 0.00 | 75 | 1010.5 |
| 20260505005006 | 23 | 91 | 0.0 | 6.4 | 0.00 | 0.00 | 0.00 | 74 | 1010.4 |
| 20260505004528 | 23 | 206 | 0.0 | 6.4 | 0.00 | 0.00 | 0.00 | 74 | 1010.4 |
| 20260505004008 | 23 | 236 | 0.0 | 4.8 | 0.00 | 0.00 | 0.00 | 74 | 1010.6 |
| 20260505003511 | 23 | 187 | 1.6 | 8.0 | 0.00 | 0.00 | 0.00 | 73 | 1010.4 |
| 20260505003025 | 24 | 127 | 0.0 | 8.0 | 0.00 | 0.00 | 0.00 | 73 | 1010.4 |
| 20260505002510 | 24 | 262 | 1.6 | 8.0 | 0.00 | 0.00 | 0.00 | 73 | 1010.4 |
| 20260505002009 | 24 | 120 | 0.0 | 6.4 | 0.00 | 0.00 | 0.00 | 73 | 1010.4 |
| 20260505001528 | 24 | 187 | 1.6 | 6.4 | 0.00 | 0.00 | 0.00 | 73 | 1010.4 |
| 20260505001002 | 24 | 117 | 0.0 | 11.3 | 0.00 | 0.00 | 0.00 | 71 | 1010.4 |
| 20260505000506 | 24 | 121 | 0.0 | 11.3 | 0.00 | 0.00 | 0.00 | 71 | 1010.5 |
| 20260505000008 | 25 | 238 | 0.0 | 11.3 | 0.00 | 0.00 | 0.00 | 71 | 1010.6 |
| 20260504235502 | 25 | 162 | 3.2 | 11.3 | 0.00 | 0.00 | 0.00 | 70 | 1010.6 |
| 20260504235006 | 25 | 220 | 0.0 | 17.7 | 0.00 | 0.00 | 0.00 | 70 | 1010.6 |
| 20260504234504 | 25 | 203 | 0.0 | 17.7 | 0.00 | 0.00 | 0.00 | 70 | 1010.6 |
| 20260504234002 | 25 | 86 | 1.6 | 9.7 | 0.00 | 0.00 | 0.00 | 69 | 1010.6 |
| 20260504233502 | 25 | 118 | 0.0 | 4.8 | 0.00 | 0.00 | 0.00 | 69 | 1010.4 |
| 20260504233003 | 25 | 179 | 0.0 | 4.8 | 0.00 | 0.00 | 0.00 | 68 | 1010.6 |
| 20260504232506 | 25 | 115 | 0.0 | 6.4 | 0.00 | 0.00 | 0.00 | 67 | 1010.7 |
| 20260504232002 | 25 | 122 | 1.6 | 6.4 | 0.00 | 0.00 | 0.00 | 66 | 1010.7 |
| 20260504231503 | 26 | 184 | 0.0 | 6.4 | 0.00 | 0.00 | 0.00 | 67 | 1010.7 |
| 20260504231005 | 26 | 109 | 0.0 | 4.8 | 0.00 | 0.00 | 0.00 | 66 | 1010.8 |
| 20260504230502 | 26 | 167 | 0.0 | 9.7 | 0.00 | 0.00 | 0.00 | 66 | 1010.9 |
| 20260504230020 | 26 | 119 | 1.6 | 9.7 | 0.00 | 0.00 | 0.00 | 65 | 1010.9 |
| 20260504225504 | 26 | 102 | 1.6 | 6.4 | 0.00 | 0.00 | 0.00 | 65 | 1011.1 |
| 20260504225001 | 26 | 104 | 3.2 | 6.4 | 0.00 | 0.00 | 0.00 | 65 | 1011.2 |
| 20260504224515 | 26 | 85 | 1.6 | 6.4 | 0.00 | 0.00 | 0.00 | 64 | 1011.0 |
| 20260504224003 | 26 | 112 | 1.6 | 8.0 | 0.00 | 0.00 | 0.00 | 64 | 1011.0 |
| 20260504223503 | 26 | 122 | 1.6 | 8.0 | 0.00 | 0.00 | 0.00 | 64 | 1011.0 |
| 20260504223013 | 26 | 103 | 1.6 | 6.4 | 0.00 | 0.00 | 0.00 | 63 | 1011.2 |
| 20260504222504 | 26 | 71 | 1.6 | 8.0 | 0.00 | 0.00 | 0.00 | 64 | 1011.1 |
| 20260504222005 | 26 | 210 | 0.0 | 8.0 | 0.00 | 0.00 | 0.00 | 63 | 1011.2 |
| 20260504221510 | 26 | 109 | 1.6 | 8.0 | 0.00 | 0.00 | 0.00 | 64 | 1011.2 |
| 20260504221002 | 26 | 218 | 0.0 | 16.1 | 0.00 | 0.00 | 0.00 | 63 | 1011.3 |
| 20260504220506 | 26 | 210 | 0.0 | 16.1 | 0.00 | 0.00 | 0.00 | 63 | 1011.5 |
| 20260504220009 | 26 | 205 | 0.0 | 9.7 | 0.00 | 0.00 | 0.00 | 62 | 1011.4 |
| 20260504215502 | 26 | 120 | 3.2 | 9.7 | 0.00 | 0.00 | 0.00 | 60 | 1011.4 |
| 20260504215007 | 27 | 136 | 1.6 | 6.4 | 0.00 | 0.00 | 0.00 | 61 | 1011.5 |
| 20260504214504 | 27 | 98 | 1.6 | 8.0 | 0.00 | 0.00 | 0.00 | 60 | 1011.5 |
| 20260504214007 | 27 | 83 | 3.2 | 8.0 | 0.00 | 0.00 | 0.00 | 61 | 1011.6 |
| 20260504213503 | 27 | 188 | 0.0 | 4.8 | 0.00 | 0.00 | 0.00 | 61 | 1011.8 |
| 20260504213004 | 28 | 102 | 0.0 | 4.8 | 0.00 | 0.00 | 0.00 | 59 | 1011.7 |